Wind_Speed
13 11 10 11 11 11 9 11 12 19 24 24 23 26 20 17 13 9 9 8 6 4 4 4 4 5 6 7 7 8 8 9 10 11 12 13 13 13 14 14 13 14 14
17 15 13 17 15 18 12 9 10 14 15 15 22 25 30 28 21 15 10 7 5 3 3 4 4 4 4 5 6 8 8 9 11 12 13 13 14 14 15 14 14 15 15
18 18 12 11 11 17 15 12 5 13 13 10 16 25 28 32 28 22 9 6 4 3 3 3 4 6 7 8 9 9 10 11 12 13 14 15 16 17 17 17 16 15 15
16 16 15 23 14 21 13 18 19 19 16 13 14 16 18 16 26 27 14 3 3 4 4 4 6 6 8 9 10 11 12 13 14 15 16 16 16 16 17 18 19 20 20
19 18 15 12 19 21 16 18 21 19 13 12 13 15 12 11 18 17 23 16 13 8 5 5 6 8 9 11 12 13 13 14 15 14 13 13 13 14 14 14 15 17 18
21 16 17 12 12 16 15 12 17 15 13 11 11 4 6 11 10 13 14 14 9 7 5 7 9 11 12 13 14 13 13 12 11 11 12 12 13 14 15 17 18 18 19
11 17 20 17 17 14 12 11 13 12 11 11 8 6 11 13 13 11 9 8 8 6 6 8 11 13 14 14 12 11 10 10 12 12 13 14 15 15 16 18 19 20 22
17 18 21 16 19 17 14 14 16 14 12 12 9 11 12 10 10 9 9 9 9 5 6 9 12 14 14 11 9 8 9 12 13 14 15 15 16 17 19 21 22 23 25
21 20 23 19 22 22 20 18 18 16 13 12 12 14 15 13 11 10 11 11 8 6 7 11 13 14 13 10 8 10 12 13 14 15 16 17 19 21 22 24 26 28 28
13 18 23 24 25 24 22 22 22 20 16 14 15 17 18 16 13 13 13 11 9 7 9 13 17 16 12 10 9 11 13 15 17 17 17 18 20 23 26 28 30 31 32
18 18 21 27 30 33 26 27 26 23 16 16 18 19 18 17 16 15 13 11 9 9 12 15 17 15 12 11 12 12 13 15 14 14 17 20 23 26 28 30 30 31 33
20 20 27 29 32 32 35 32 26 22 18 18 20 21 20 19 18 16 14 12 10 11 13 16 18 15 12 13 13 13 14 14 14 17 19 22 25 26 27 28 30 31 34
24 27 28 29 32 38 46 31 27 21 23 21 21 22 20 19 18 16 15 13 12 12 14 17 18 14 13 12 12 13 12 14 14 17 23 27 29 28 27 26 28 30 30
36 37 36 33 34 32 34 27 23 31 25 23 25 23 21 20 19 17 15 13 12 14 15 18 16 14 13 13 13 11 11 12 18 22 23 25 26 25 26 28 30 30 28
32 36 37 36 34 31 29 29 31 27 38 28 25 23 21 19 16 16 15 14 14 15 18 18 15 14 14 13 11 10 11 16 20 23 27 27 27 27 28 29 31 32 31
29 30 34 32 35 40 36 35 31 47 35 26 25 24 22 23 20 19 16 16 15 17 18 17 16 15 14 13 10 11 14 17 20 23 25 27 27 26 27 29 32 32 31
26 29 30 29 29 35 41 33 28 21 29 33 33 30 29 25 20 16 16 16 15 19 18 17 16 14 12 11 11 13 13 16 20 24 27 27 27 28 30 32 31 31 31
15 21 24 30 25 31 39 45 49 29 32 26 26 27 25 20 20 17 17 15 16 19 18 16 14 13 12 11 13 13 13 19 22 26 29 29 29 29 31 33 32 32 31
20 14 8 11 11 12 20 27 30 31 26 22 24 23 20 19 17 18 16 15 18 17 16 15 13 12 9 11 13 14 16 20 23 26 29 29 30 31 32 33 33 33 31
9 21 23 19 19 24 22 22 26 28 29 26 23 20 18 16 17 17 16 17 16 15 15 12 11 8 10 13 14 15 17 19 23 25 28 28 30 33 33 33 34 33 31
3 20 5 18 19 18 18 21 24 25 25 21 18 18 17 17 18 17 17 15 12 14 13 10 8 8 11 12 13 13 16 20 23 25 28 29 30 33 34 34 34 33 31
9 12 18 14 16 18 18 21 24 24 19 20 21 19 18 17 18 19 16 11 11 11 9 8 6 9 13 14 13 15 17 23 24 25 28 29 30 33 34 33 33 32 30
5 12 15 16 18 20 21 22 21 18 18 19 18 16 14 16 19 16 12 13 12 8 7 7 9 13 15 12 13 16 19 22 24 26 28 30 31 33 33 33 33 31 28
15 12 14 14 18 18 17 17 15 15 16 16 16 15 16 19 17 15 14 13 11 9 10 8 12 15 14 12 14 17 21 25 26 26 28 29 29 32 32 31 32 29 27
19 15 15 17 16 15 16 15 14 14 14 14 16 17 18 19 17 15 12 12 14 15 12 11 14 12 12 13 15 17 19 23 25 25 26 26 29 31 30 30 29 27 26
18 17 17 16 15 15 14 13 13 12 13 15 16 17 18 17 15 14 13 14 13 8 11 14 14 14 13 14 15 20 20 24 25 25 25 26 29 30 29 29 27 25 24
Wind_Direction
207 209 230 244 254 263 266 274 280 299 281 268 257 259 272 266 261 266 286 298 297 307 319 321 336 334 336 341 339 333 327 327 327 327 327 327 326 325 326 323 319 316 314
222 229 246 265 249 249 255 250 300 320 311 284 264 261 264 261 255 259 265 275 278 306 323 326 330 322 330 335 329 328 327 327 327 324 323 322 321 320 317 315 315 314 312
212 231 251 270 255 254 230 237 299 331 311 294 265 264 264 257 249 229 250 254 267 312 312 315 319 331 333 330 330 328 327 323 319 317 317 316 314 313 315 315 314 312 309
219 243 266 275 269 273 254 236 260 295 304 283 272 267 273 247 224 210 211 225 351 317 299 317 319 328 331 326 322 321 320 318 317 314 311 310 310 312 312 316 320 323 321
234 246 272 298 252 248 250 250 260 279 291 285 274 259 265 224 215 219 214 237 257 267 279 308 321 323 324 321 321 321 319 316 313 314 317 319 322 322 321 319 319 318 318
236 259 263 275 279 252 245 267 249 257 284 285 269 243 159 140 171 193 191 212 225 249 288 315 324 325 322 321 322 319 314 318 325 325 325 319 318 321 323 324 323 322 321
243 242 259 270 265 247 242 250 239 244 269 271 249 182 160 150 156 166 197 205 219 248 295 325 330 326 321 322 322 321 323 321 321 327 326 327 326 326 326 324 324 322 321
246 239 233 263 257 253 250 240 231 231 248 255 226 189 180 178 175 184 199 208 227 257 311 328 327 321 318 318 319 321 320 321 329 326 320 319 320 321 323 322 321 321 319
240 239 246 250 252 244 248 246 233 230 237 237 225 205 200 203 197 201 208 219 237 266 310 325 324 323 321 324 324 319 324 324 322 321 322 323 320 322 324 324 322 321 319
250 234 231 242 251 251 238 241 233 225 228 228 219 216 209 211 213 217 219 226 239 271 310 323 329 326 319 315 315 318 317 316 314 317 318 317 322 325 324 323 322 321 319
262 256 243 235 244 243 234 235 221 224 230 232 225 220 220 217 220 225 226 235 246 275 304 319 322 318 310 304 307 305 305 307 306 313 317 319 322 323 321 319 318 319 318
273 258 252 252 251 250 253 224 220 222 234 234 229 222 221 223 224 224 228 236 253 279 301 313 317 308 297 296 299 303 308 307 308 313 323 325 320 315 313 313 315 319 319
257 249 250 255 253 252 272 285 269 217 235 252 237 226 223 225 227 226 228 239 255 276 299 309 309 300 293 293 299 299 300 310 325 327 327 323 319 315 314 314 314 318 318
269 265 263 261 258 262 266 254 260 273 228 246 244 228 225 226 231 231 236 244 259 283 299 302 302 294 291 292 292 300 310 317 324 324 324 325 322 317 314 316 317 318 318
270 265 262 261 261 255 249 261 254 240 259 229 239 226 229 235 225 229 239 252 266 284 294 300 295 290 283 285 288 288 303 317 321 322 322 322 320 315 314 317 320 322 323
266 262 259 255 258 260 258 249 259 265 220 208 201 215 220 217 219 237 244 255 269 286 292 293 288 279 276 282 293 294 305 316 323 325 325 326 326 325 324 324 325 324 324
267 263 256 255 255 255 251 248 246 190 195 200 203 207 214 216 227 238 242 255 274 287 286 284 279 270 274 277 277 291 297 316 326 330 332 330 329 327 325 327 326 325 325
295 287 264 252 249 250 243 242 232 222 203 214 209 213 214 218 222 233 241 260 279 279 276 274 266 263 259 264 276 285 293 323 330 332 334 333 328 326 327 328 327 328 326
308 287 203 137 131 170 163 155 167 187 196 202 209 209 214 218 225 233 243 265 272 272 267 258 252 250 256 274 284 289 303 321 327 331 333 331 329 329 330 329 328 328 325
331 141 145 145 143 148 155 172 180 182 186 192 197 208 211 215 227 238 255 263 265 259 247 241 238 253 271 280 289 298 312 321 325 330 331 329 331 332 331 330 329 328 326
234 156 150 160 170 178 179 186 184 187 188 193 205 204 208 215 231 248 254 256 255 237 231 232 248 278 291 299 302 308 314 321 326 330 331 328 330 332 331 330 329 329 328
241 221 225 201 183 172 173 178 182 186 195 198 199 204 214 229 245 251 246 244 235 228 226 228 268 296 301 304 303 308 317 321 321 323 328 328 327 330 330 330 330 330 328
234 197 197 195 183 177 176 182 192 200 192 196 202 213 228 241 241 233 232 233 230 222 245 259 275 301 307 296 302 311 318 321 319 319 324 327 326 329 330 331 331 330 328
253 225 212 194 177 174 185 190 190 195 202 208 214 226 233 231 225 220 226 231 238 247 252 271 287 290 288 286 295 305 314 320 319 318 323 324 325 329 331 331 331 330 329
237 227 198 183 185 192 191 192 198 203 211 222 231 231 227 224 220 223 232 235 246 256 255 280 286 276 275 290 303 312 323 331 326 323 324 325 329 331 331 331 331 331 332
211 207 192 191 198 195 197 209 219 224 233 237 231 227 223 219 219 221 224 230 234 270 291 290 292 277 282 299 311 317 313 323 327 323 325 328 333 332 332 332 333 334 335
Height
3192 3193 3191 3190 3191 3194 3195 3196 3196 3193 3190 3189 3190 3192 3193 3192 3192 3192 3193 3193 3192 3191 3190 3190 3189 3188 3187 3186 3185 3184 3183 3182 3180 3178 3177 3175 3174 3173 3172 3171 3170 3168 3166
3187 3190 3190 3189 3187 3189 3190 3193 3192 3189 3186 3184 3186 3188 3188 3189 3189 3190 3190 3190 3190 3189 3188 3188 3187 3186 3185 3184 3183 3182 3181 3180 3178 3177 3175 3174 3172 3170 3168 3167 3166 3165 3163
3183 3185 3187 3189 3187 3186 3185 3187 3188 3187 3185 3183 3182 3182 3181 3180 3182 3186 3187 3187 3187 3187 3187 3186 3185 3185 3184 3183 3182 3180 3179 3178 3176 3174 3172 3170 3168 3166 3165 3163 3162 3161 3160
3179 3182 3183 3183 3183 3183 3181 3182 3183 3183 3183 3181 3179 3177 3175 3173 3175 3179 3184 3186 3185 3185 3186 3185 3184 3183 3182 3181 3180 3178 3177 3176 3174 3173 3171 3168 3167 3164 3163 3161 3158 3156 3154
3175 3177 3179 3177 3177 3179 3178 3177 3179 3180 3180 3178 3175 3174 3171 3170 3172 3176 3179 3182 3184 3184 3183 3183 3182 3180 3179 3179 3178 3175 3174 3172 3170 3169 3167 3165 3163 3162 3160 3158 3156 3153 3151
3158 3170 3173 3173 3175 3175 3175 3173 3174 3177 3176 3174 3173 3171 3169 3167 3171 3174 3177 3181 3181 3183 3182 3181 3179 3178 3177 3176 3174 3171 3170 3168 3167 3165 3164 3162 3161 3159 3157 3155 3153 3150 3148
3166 3168 3169 3170 3170 3171 3170 3169 3171 3172 3171 3171 3171 3170 3168 3169 3172 3174 3176 3178 3178 3180 3180 3179 3176 3176 3175 3173 3171 3168 3165 3165 3164 3164 3161 3159 3157 3156 3154 3152 3150 3147 3144
3159 3160 3164 3165 3166 3165 3164 3165 3167 3169 3168 3169 3169 3168 3168 3169 3171 3173 3175 3176 3177 3177 3176 3175 3174 3173 3171 3169 3167 3165 3164 3163 3161 3160 3159 3156 3155 3153 3150 3148 3146 3143 3140
3153 3154 3157 3160 3162 3161 3160 3160 3163 3163 3166 3166 3166 3166 3167 3168 3168 3170 3172 3173 3173 3173 3174 3173 3171 3168 3166 3165 3163 3162 3161 3160 3159 3157 3156 3153 3152 3149 3146 3144 3140 3137 3134
3146 3149 3151 3155 3156 3157 3155 3154 3157 3160 3161 3162 3162 3162 3163 3165 3166 3167 3169 3169 3170 3171 3171 3169 3167 3164 3163 3162 3161 3159 3158 3158 3156 3155 3153 3151 3148 3145 3141 3137 3133 3130 3126
3140 3143 3144 3146 3145 3145 3146 3150 3153 3156 3157 3158 3160 3160 3161 3163 3164 3166 3166 3167 3167 3166 3165 3164 3163 3162 3160 3159 3158 3157 3156 3156 3155 3153 3150 3147 3144 3139 3136 3132 3129 3125 3120
3132 3134 3134 3135 3135 3136 3128 3128 3146 3149 3153 3154 3156 3158 3158 3160 3162 3163 3163 3163 3163 3163 3162 3162 3160 3158 3157 3156 3154 3153 3153 3152 3151 3149 3146 3142 3140 3137 3133 3129 3124 3120 3114
3122 3122 3125 3127 3127 3126 3120 3123 3122 3138 3147 3151 3152 3154 3155 3157 3159 3160 3160 3160 3159 3160 3159 3157 3157 3155 3154 3153 3151 3150 3150 3148 3147 3144 3141 3138 3134 3130 3126 3124 3119 3114 3109
3114 3115 3116 3117 3115 3120 3122 3123 3125 3120 3138 3145 3147 3150 3151 3153 3155 3156 3158 3158 3157 3157 3155 3154 3152 3150 3150 3149 3148 3147 3146 3145 3143 3140 3137 3134 3129 3124 3120 3116 3112 3108 3103
3105 3106 3106 3108 3109 3107 3112 3112 3117 3121 3129 3135 3143 3146 3148 3150 3150 3152 3154 3154 3153 3152 3152 3150 3149 3147 3146 3145 3144 3143 3143 3141 3139 3136 3132 3128 3124 3119 3115 3109 3105 3099 3093
3095 3095 3096 3098 3099 3099 3102 3104 3109 3112 3121 3127 3133 3140 3142 3142 3145 3147 3148 3149 3150 3149 3147 3144 3144 3143 3142 3141 3140 3140 3139 3138 3135 3131 3127 3122 3117 3112 3108 3103 3097 3092 3086
3086 3085 3086 3086 3087 3087 3091 3096 3100 3098 3112 3118 3124 3130 3133 3136 3141 3144 3144 3145 3145 3146 3144 3141 3140 3139 3138 3138 3138 3137 3136 3134 3131 3126 3121 3116 3111 3107 3102 3097 3092 3087 3081
3078 3076 3074 3075 3077 3073 3077 3084 3094 3101 3106 3112 3118 3124 3127 3133 3136 3137 3140 3140 3140 3139 3139 3136 3135 3136 3135 3135 3134 3133 3131 3128 3124 3120 3115 3110 3106 3101 3096 3090 3085 3080 3074
3069 3063 3065 3064 3063 3065 3070 3076 3086 3095 3103 3110 3115 3120 3125 3127 3130 3133 3134 3134 3135 3134 3133 3132 3132 3132 3131 3131 3130 3128 3126 3124 3120 3115 3110 3106 3101 3096 3090 3084 3079 3073 3068
3067 3066 3066 3066 3069 3073 3076 3081 3088 3094 3101 3107 3112 3117 3120 3122 3126 3129 3129 3130 3130 3129 3129 3129 3129 3128 3127 3126 3125 3123 3121 3118 3115 3111 3106 3101 3096 3090 3085 3079 3073 3068 3062
3069 3069 3067 3071 3073 3076 3080 3084 3089 3095 3101 3105 3108 3112 3116 3119 3122 3123 3124 3124 3124 3126 3126 3126 3125 3124 3123 3122 3120 3118 3116 3113 3109 3105 3101 3096 3091 3086 3080 3074 3068 3062 3056
3066 3067 3069 3073 3074 3076 3080 3085 3091 3095 3099 3102 3105 3108 3112 3114 3117 3119 3120 3119 3120 3122 3122 3122 3122 3120 3118 3116 3115 3113 3111 3108 3104 3100 3096 3091 3086 3081 3075 3069 3063 3057 3051
3066 3066 3069 3072 3074 3077 3080 3085 3089 3092 3095 3099 3102 3105 3108 3111 3113 3114 3114 3115 3117 3117 3118 3118 3117 3115 3114 3112 3111 3109 3106 3103 3099 3095 3091 3086 3081 3076 3070 3063 3058 3052 3046
3066 3067 3068 3070 3073 3076 3080 3084 3086 3090 3093 3097 3099 3101 3104 3106 3106 3108 3110 3111 3111 3113 3113 3114 3112 3110 3108 3107 3105 3103 3101 3098 3094 3090 3086 3081 3076 3071 3065 3059 3053 3047 3042
3065 3065 3068 3070 3074 3077 3079 3082 3085 3088 3091 3093 3095 3097 3098 3100 3102 3104 3105 3106 3108 3109 3110 3109 3107 3105 3104 3102 3100 3099 3096 3093 3089 3085 3081 3076 3071 3066 3060 3054 3049 3043 3038
3061 3064 3066 3069 3072 3075 3078 3081 3083 3085 3087 3089 3090 3092 3094 3096 3098 3101 3102 3103 3104 3105 3105 3104 3102 3100 3099 3097 3096 3093 3090 3087 3083 3080 3075 3070 3066 3061 3056 3050 3045 3040 3035